TimeEST,TemperatureF,Dew PointF,Humidity,Sea Level PressureIn,VisibilityMPH,Wind Direction,Wind SpeedMPH,Gust SpeedMPH,PrecipitationIn,Events,Conditions,WindDirDegrees,DateUTC
12:14 AM,46.4,39.2,76,29.32,6.0,West,19.6,27.6,0.02,Rain,Heavy Rain,270,2013-01-31 05:14:00
12:23 AM,44.6,39.2,81,29.33,8.0,West,20.7,31.1,0.04,Rain,Light Rain,270,2013-01-31 05:23:00
12:51 AM,44.1,37.9,79,29.33,6.0,WSW,24.2,34.5,0.08,Rain,Rain,250,2013-01-31 05:51:00
1:40 AM,39.2,33.8,81,29.37,3.0,West,26.5,44.9,0.03,Rain,Rain,280,2013-01-31 06:40:00
1:51 AM,37.9,33.1,83,29.42,6.0,West,20.7,43.7,0.05,Rain,Light Rain,280,2013-01-31 06:51:00
2:45 AM,35.6,30.2,81,29.44,2.5,West,17.3,26.5,0.04,Snow,Light Snow,280,2013-01-31 07:45:00
2:51 AM,35.1,30.9,85,29.47,3.0,WNW,16.1,24.2,0.05,Snow,Light Snow,290,2013-01-31 07:51:00
3:07 AM,35.6,28.4,75,29.45,1.8,West,21.9,47.2,0.00,Snow,Light Snow,270,2013-01-31 08:07:00
3:15 AM,35.6,28.4,75,29.46,1.8,West,21.9,41.4,0.00,Snow,Light Snow,270,2013-01-31 08:15:00
3:22 AM,35.6,28.4,75,29.46,3.0,West,23.0,34.5,0.00,Snow,Light Snow,270,2013-01-31 08:22:00
3:51 AM,34.0,28.9,82,29.49,4.0,West,9.2,21.9,0.01,Snow,Light Snow,280,2013-01-31 08:51:00
3:57 AM,33.8,28.4,81,29.48,1.8,West,15.0,26.5,0.01,Snow,Light Snow,280,2013-01-31 08:57:00
4:19 AM,32.0,24.8,75,29.49,2.0,West,21.9,42.6,0.01,Snow,Light Snow,270,2013-01-31 09:19:00
4:29 AM,32.0,24.8,75,29.50,4.0,West,23.0,32.2,0.01,Snow,Light Snow,260,2013-01-31 09:29:00
4:51 AM,32.0,24.1,73,29.55,10.0,West,19.6,33.4,0.01,,Overcast,260,2013-01-31 09:51:00
5:01 AM,32.0,24.8,75,29.53,10.0,West,21.9,38.0,0.00,,Overcast,270,2013-01-31 10:01:00
5:45 AM,30.2,23.0,75,29.56,2.0,West,12.7,33.4,0.00,Snow,Light Snow,260,2013-01-31 10:45:00
5:51 AM,28.9,23.0,78,29.61,1.0,West,19.6,29.9,0.00,Snow,Light Snow,260,2013-01-31 10:51:00
5:57 AM,28.4,23.0,80,29.57,0.8,West,15.0,29.9,0.00,Snow,Light Snow,280,2013-01-31 10:57:00
6:03 AM,28.4,23.0,80,29.57,1.2,West,18.4,29.9,0.00,Snow,Light Snow,260,2013-01-31 11:03:00
6:08 AM,28.4,21.2,74,29.58,3.0,West,19.6,29.9,0.00,Snow,Light Snow,270,2013-01-31 11:08:00
6:39 AM,28.4,19.4,69,29.60,10.0,West,12.7,25.3,0.00,,Overcast,270,2013-01-31 11:39:00
6:51 AM,28.9,19.0,67,29.65,10.0,West,10.4,27.6,0.00,,Overcast,280,2013-01-31 11:51:00
7:29 AM,28.4,19.4,69,29.62,8.0,WSW,20.7,33.4,N/A,Snow,Light Snow,250,2013-01-31 12:29:00
7:51 AM,28.0,21.0,75,29.66,4.0,West,13.8,24.2,0.00,Snow,Light Snow,270,2013-01-31 12:51:00
7:54 AM,28.4,21.2,74,29.62,1.2,West,19.6,28.8,0.00,Snow,Light Snow,260,2013-01-31 12:54:00
8:02 AM,26.6,21.2,80,29.63,0.5,West,21.9,28.8,0.00,Snow,Snow,260,2013-01-31 13:02:00
8:08 AM,28.4,19.4,69,29.64,2.0,West,24.2,31.1,0.00,Snow,Light Snow,270,2013-01-31 13:08:00
8:16 AM,28.4,17.6,64,29.64,10.0,West,18.4,32.2,0.00,,Overcast,260,2013-01-31 13:16:00
8:27 AM,28.4,17.6,64,29.64,10.0,West,19.6,32.2,0.00,,Overcast,260,2013-01-31 13:27:00
8:44 AM,26.6,19.4,74,29.65,1.8,WNW,19.6,31.1,0.00,Snow,Light Snow,290,2013-01-31 13:44:00
8:47 AM,26.6,19.4,74,29.66,0.8,WNW,17.3,31.1,0.00,Snow,Light Snow,290,2013-01-31 13:47:00
8:51 AM,26.1,19.9,78,29.70,0.5,WNW,17.3,31.1,0.00,Snow,Snow,290,2013-01-31 13:51:00
9:03 AM,26.6,19.4,74,29.67,1.8,WNW,11.5,28.8,0.00,Snow,Light Snow,290,2013-01-31 14:03:00
9:43 AM,26.6,19.4,74,29.68,0.8,West,9.2,23.0,0.00,Snow,Light Snow,270,2013-01-31 14:43:00
9:51 AM,26.1,19.9,78,29.74,0.5,WSW,12.7,17.3,0.00,Snow,Snow,250,2013-01-31 14:51:00
10:36 AM,24.8,19.4,80,29.72,0.5,West,12.7,21.9,0.01,Snow,Snow,270,2013-01-31 15:36:00
10:51 AM,25.0,19.9,81,29.79,0.2,West,11.5,28.8,0.02,Snow,Heavy Snow,270,2013-01-31 15:51:00
11:03 AM,24.8,17.6,74,29.74,0.8,West,17.3,40.3,0.00,Snow,Light Snow,270,2013-01-31 16:03:00
11:05 AM,24.8,17.6,74,29.74,1.2,West,18.4,34.5,0.00,Snow,Light Snow,260,2013-01-31 16:05:00
11:08 AM,24.8,15.8,69,29.74,3.0,West,17.3,29.9,0.00,Snow,Light Snow,270,2013-01-31 16:08:00
11:20 AM,24.8,17.6,74,29.74,2.5,WNW,11.5,24.2,0.00,Snow,Light Snow,290,2013-01-31 16:20:00
11:27 AM,24.8,17.6,74,29.75,4.0,West,15.0,29.9,0.00,Snow,Light Snow,270,2013-01-31 16:27:00
11:44 AM,24.8,17.6,74,29.74,2.5,West,9.2,21.9,0.00,Snow,Light Snow,260,2013-01-31 16:44:00
11:51 AM,25.0,17.1,72,29.80,1.2,West,15.0,20.7,0.00,Snow,Light Snow,260,2013-01-31 16:51:00
11:56 AM,24.8,17.6,74,29.75,0.5,West,10.4,18.4,0.00,Snow,Snow,260,2013-01-31 16:56:00
12:09 PM,24.8,17.6,74,29.74,1.0,West,13.8,28.8,0.00,Snow,Light Snow,260,2013-01-31 17:09:00
12:32 PM,26.6,15.8,64,29.74,3.0,West,19.6,33.4,0.00,,Overcast,260,2013-01-31 17:32:00
12:51 PM,26.1,15.1,63,29.80,2.0,West,17.3,28.8,0.00,Snow,Light Snow,270,2013-01-31 17:51:00
1:02 PM,24.8,15.8,69,29.74,1.2,West,15.0,29.9,0.00,Snow,Light Snow,260,2013-01-31 18:02:00
1:11 PM,24.8,17.6,74,29.74,1.0,West,8.1,28.8,0.00,Snow,Light Snow,270,2013-01-31 18:11:00
1:47 PM,24.8,17.6,74,29.74,3.0,West,10.4,23.0,0.00,Snow,Light Snow,260,2013-01-31 18:47:00
1:48 PM,25.0,17.1,72,29.81,3.0,West,13.8,23.0,0.00,Snow,Light Snow,260,2013-01-31 18:48:00
1:59 PM,26.6,15.8,64,29.74,4.0,West,10.4,21.9,0.00,Snow,Light Snow,270,2013-01-31 18:59:00
2:35 PM,26.6,15.8,64,29.75,1.5,West,19.6,33.4,0.00,Snow,Light Snow,260,2013-01-31 19:35:00
2:38 PM,26.6,15.8,64,29.75,0.8,WSW,20.7,33.4,N/A,Snow,Light Snow,250,2013-01-31 19:38:00
2:49 PM,24.8,19.4,80,29.77,0.2,WNW,23.0,34.5,0.00,Snow,Heavy Snow,290,2013-01-31 19:49:00
2:50 PM,24.1,19.0,81,29.84,0.2,WNW,19.6,34.5,0.00,Snow,Heavy Snow,290,2013-01-31 19:50:00
3:02 PM,24.8,17.6,74,29.78,0.8,West,24.2,36.8,0.00,Snow,Light Snow,280,2013-01-31 20:02:00
3:11 PM,24.8,15.8,69,29.78,2.0,West,16.1,31.1,0.00,Snow,Light Snow,260,2013-01-31 20:11:00
3:14 PM,24.8,15.8,69,29.78,3.0,WSW,21.9,31.1,0.00,Snow,Light Snow,250,2013-01-31 20:14:00
3:51 PM,25.0,14.0,63,29.88,2.5,WNW,18.4,35.7,0.00,Snow,Light Snow,300,2013-01-31 20:51:00
4:07 PM,24.8,14.0,64,29.81,6.0,WNW,12.7,27.6,0.00,Snow,Light Snow,290,2013-01-31 21:07:00
4:51 PM,24.1,12.9,62,29.90,9.0,West,8.1,20.7,0.00,Snow,Light Snow,260,2013-01-31 21:51:00
5:51 PM,24.1,12.9,62,29.91,9.0,WSW,8.1,18.4,0.00,Snow,Light Snow,250,2013-01-31 22:51:00
6:04 PM,23.0,15.8,74,29.83,2.5,West,8.1,-,0.00,Snow,Light Snow,280,2013-01-31 23:04:00
6:24 PM,23.0,15.8,74,29.84,1.5,West,9.2,-,0.00,Snow,Light Snow,270,2013-01-31 23:24:00
6:32 PM,23.0,15.8,74,29.84,3.0,SW,12.7,16.1,0.00,Snow,Light Snow,220,2013-01-31 23:32:00
6:51 PM,23.0,15.1,72,29.94,9.0,WSW,10.4,-,0.00,,Mostly Cloudy,250,2013-01-31 23:51:00
7:01 PM,23.0,15.8,74,29.85,10.0,West,6.9,-,N/A,,Mostly Cloudy,260,2013-02-01 00:01:00
7:38 PM,23.0,15.8,74,29.84,2.5,West,10.4,-,0.00,Snow,Light Snow,270,2013-02-01 00:38:00
7:47 PM,23.0,15.8,74,29.84,1.2,West,9.2,-,0.00,Snow,Light Snow,260,2013-02-01 00:47:00
7:51 PM,23.0,17.1,78,29.93,1.2,WSW,5.8,-,0.00,Snow,Light Snow,250,2013-02-01 00:51:00
7:59 PM,21.2,15.8,80,29.85,3.0,West,5.8,-,0.00,Snow,Light Snow,260,2013-02-01 00:59:00
8:15 PM,24.8,15.8,69,29.85,10.0,West,6.9,17.3,0.00,,Overcast,270,2013-02-01 01:15:00
8:51 PM,23.0,15.1,72,29.93,9.0,WSW,13.8,20.7,0.00,,Mostly Cloudy,240,2013-02-01 01:51:00
9:51 PM,24.1,16.0,71,29.93,3.0,WSW,9.2,19.6,0.00,Snow,Light Snow,240,2013-02-01 02:51:00
9:56 PM,24.8,17.6,74,29.84,2.5,West,10.4,19.6,0.00,Snow,Light Snow,270,2013-02-01 02:56:00
10:15 PM,24.8,17.6,74,29.84,1.8,SSW,5.8,-,0.00,Snow,Light Snow,210,2013-02-01 03:15:00
10:39 PM,24.8,19.4,80,29.84,2.0,SSW,5.8,-,0.00,Snow,Light Snow,210,2013-02-01 03:39:00
10:51 PM,24.1,18.0,77,29.92,2.0,SSW,6.9,-,0.00,Snow,Light Snow,200,2013-02-01 03:51:00
11:11 PM,24.8,17.6,74,29.82,4.0,SW,6.9,-,0.00,Snow,Light Snow,220,2013-02-01 04:11:00
11:28 PM,24.8,17.6,74,29.81,2.5,SW,4.6,20.7,0.00,Snow,Light Snow,220,2013-02-01 04:28:00
11:51 PM,25.0,19.0,78,29.88,1.5,West,10.4,19.6,0.00,Snow,Light Snow,270,2013-02-01 04:51:00